Weather History for Moline, IL

Change the Weather History Date:

Monday, December 31, 2012

  Actual Average Record
Temperature  
Mean Temperature 27 °F 23 °F  
Max Temperature 36 °F 31 °F 61 °F (1965)
Min Temperature 18 °F 15 °F -17 °F (1967)
Degree Days  
Heating Degree Days 38 42  
Month to date heating degree days 1001 1190  
Since 1 July heating degree days 2346 2421  
Cooling Degree Days 0 0  
Month to date cooling degree days 0 0  
Year to date cooling degree days 1208 1004  
Moisture  
Dew Point 16 °F    
Average Humidity 67    
Maximum Humidity 77    
Minimum Humidity 56    
Precipitation  
Precipitation 0.00 in 0.05 in 1.39 in (1875)
Month to date precipitation 2.67 2.18  
Year to date precipitation 27.25 37.96  
Snow  
Snow 0.00 in 0.30 in - ()
Month to date snowfall 5.3 9.3  
Since 1 July snowfall 5.3 10.5  
Snow Depth 2.00 in    
Sea Level Pressure  
Sea Level Pressure 30.13 in    
Wind  
Wind Speed 11 mph (WNW)    
Max Wind Speed 18 mph    
Max Gust Speed 26 mph    
Visibility 10 miles    
Events      
T = Trace of Precipitation, MM = Missing Value Source: NWS Daily Summary

Daily Weather History Graph

Daily Weather History Graph

Search for Another Location

Airport:

Trip Planner

Search our weather history database for the weather conditions in past years. The results will help you decide how hot, cold, wet, or windy it might be!

Date:

Astronomy

Dec. 31, 2012 Rise Set
Actual Time 7:28 AM CST 4:42 PM CST
Civil Twilight 6:57 AM CST 5:13 PM CST
Nautical Twilight 6:22 AM CST 5:48 PM CST
Astronomical Twilight 5:48 AM CST 6:22 PM CST
Moon 8:15 PM CST (12/31) 9:07 AM CST (12/31)
Length of Visible Light 10h 16m
Length of Day
9h 14m
Waning Gibbous, 90% of the Moon is Illuminated
Dec 31
Waning Gibbous
Jan 4
Last Quarter
Jan 11
New
Jan 18
First Quarter
Jan 26
Full

Hourly Weather History & Observations

Time (CST) Temp. Windchill Dew Point Humidity Pressure Visibility Wind Dir Wind Speed Gust Speed Precip Events Conditions
12:52 AM 36.0 °F 27.1 °F 21.9 °F 57% 30.05 in 10.0 mi SW 13.8 mph 20.7 mph N/A   Clear
1:52 AM 36.0 °F 27.5 °F 21.9 °F 57% 30.05 in 10.0 mi SW 12.7 mph - N/A   Clear
2:52 AM 36.0 °F 25.6 °F 21.9 °F 57% 30.06 in 10.0 mi SW 18.4 mph 26.5 mph N/A   Clear
3:52 AM 36.0 °F 26.7 °F 23.0 °F 59% 30.06 in 10.0 mi WSW 15.0 mph - N/A   Clear
4:52 AM 34.0 °F 26.0 °F 24.1 °F 67% 30.05 in 10.0 mi West 10.4 mph - N/A   Clear
5:52 AM 32.0 °F 22.5 °F 24.1 °F 73% 30.07 in 10.0 mi WNW 12.7 mph - N/A   Clear
6:52 AM 30.0 °F 20.5 °F 21.9 °F 72% 30.09 in 10.0 mi West 11.5 mph - N/A   Overcast
7:52 AM 27.0 °F 17.3 °F 19.0 °F 72% 30.11 in 10.0 mi WNW 10.4 mph - N/A   Overcast
8:52 AM 26.1 °F 16.8 °F 19.0 °F 75% 30.11 in 10.0 mi WNW 9.2 mph - N/A   Overcast
9:52 AM 25.0 °F 15.5 °F 18.0 °F 75% 30.14 in 10.0 mi West 9.2 mph - N/A   Overcast
10:52 AM 24.1 °F 14.4 °F 17.1 °F 75% 30.14 in 10.0 mi WNW 9.2 mph - N/A   Overcast
11:52 AM 21.9 °F 9.2 °F 15.1 °F 75% 30.14 in 10.0 mi WNW 13.8 mph - N/A   Overcast
12:52 PM 21.9 °F 10.4 °F 15.1 °F 75% 30.14 in 10.0 mi NW 11.5 mph - N/A   Overcast
1:52 PM 21.9 °F 11.7 °F 15.1 °F 75% 30.12 in 10.0 mi NW 9.2 mph - N/A   Overcast
2:52 PM 21.0 °F 9.3 °F 14.0 °F 74% 30.12 in 10.0 mi NW 11.5 mph - N/A   Overcast
3:52 PM 19.9 °F 7.3 °F 12.0 °F 71% 30.13 in 10.0 mi NW 12.7 mph - N/A   Overcast
4:52 PM 19.4 °F 7.9 °F 12.2 °F 74% 30.11 in 10.0 mi WNW 10.4 mph - N/A   Overcast
5:52 PM 19.0 °F 6.8 °F 12.0 °F 74% 30.14 in 10.0 mi NW 11.5 mph - N/A   Mostly Cloudy
6:52 PM 19.0 °F 8.2 °F 12.0 °F 74% 30.17 in 10.0 mi WNW 9.2 mph - N/A   Mostly Cloudy
7:52 PM 19.0 °F 9.0 °F 10.0 °F 68% 30.17 in 10.0 mi NW 8.1 mph - N/A   Mostly Cloudy
8:52 PM 19.0 °F 8.2 °F 10.0 °F 68% 30.18 in 10.0 mi NW 9.2 mph - N/A   Overcast
9:52 PM 19.0 °F 11.1 °F 10.0 °F 68% 30.20 in 10.0 mi NW 5.8 mph - N/A   Overcast
10:52 PM 19.0 °F 8.2 °F 9.0 °F 65% 30.21 in 10.0 mi NNW 9.2 mph - N/A   Overcast
11:52 PM 18.0 °F 8.7 °F 10.0 °F 71% 30.21 in 10.0 mi NNW 6.9 mph - N/A   Overcast